Washington, IA

6:43 PM CDT on April 23, 2017 (GMT -0500)
Washington Municipal

Weather History for KAWG - October, 2014

Change the Weather History Date:

Friday, October 31, 2014

  Actual Average Record
Temperature  
Mean Temperature 40 °F -  
Max Temperature 50 °F 54 °F 77 °F (2000)
Min Temperature 30 °F 37 °F 26 °F (2012)
Degree Days  
Heating Degree Days 25    
Moisture  
Dew Point 23 °F    
Average Humidity 57    
Maximum Humidity 71    
Minimum Humidity 39    
Precipitation  
Precipitation 0.00 in - - ()
Sea Level Pressure  
Sea Level Pressure 30.36 in    
Wind  
Wind Speed 17 mph (NNW)    
Max Wind Speed 28 mph    
Max Gust Speed 36 mph    
Visibility 10 miles    
Events      
Averages and records for this station are not official NWS values.
T = Trace of Precipitation, MM = Missing Value Source: NWS Daily Summary

Daily Weather History Graph

Daily Weather History Graph

Search for Another Location

Airport or City:

Trip Planner

Search our weather history database for the weather conditions in past years. The results will help you decide how hot, cold, wet, or windy it might be!

Date:

Astronomy

Oct. 31, 2014 Rise Set
Actual Time 7:36 AM CDT 6:03 PM CDT
Civil Twilight 7:08 AM CDT 6:31 PM CDT
Nautical Twilight 6:35 AM CDT 7:04 PM CDT
Astronomical Twilight 6:03 AM CDT 7:36 PM CDT
Moon 2:21 PM CDT (10/31) 12:21 AM CDT (10/31)
Length of Visible Light 11h 23m
Length of Day
10h 26m
First Quarter, 57% of the Moon is Illuminated
Oct 31
First Quarter
Nov 6
Full
Nov 14
Last Quarter
Nov 22
New
Nov 29
First Quarter

Hourly Weather History & Observations

Time (CDT) Temp. Windchill Dew Point Humidity Pressure Visibility Wind Dir Wind Speed Gust Speed Precip Events Conditions
12:15 AM 50.0 °F - 41.0 °F 71% 30.15 in 10.0 mi NNW 13.8 mph 21.9 mph N/A   Overcast
12:35 AM 50.0 °F - 39.2 °F 66% 30.15 in 10.0 mi NNW 18.4 mph - N/A   Overcast
12:55 AM 48.2 °F - 39.2 °F 71% 30.16 in 10.0 mi North 16.1 mph 21.9 mph N/A   Overcast
1:15 AM 48.2 °F - 39.2 °F 71% 30.16 in 10.0 mi NNW 12.7 mph 18.4 mph N/A   Overcast
1:35 AM 48.2 °F - 39.2 °F 71% 30.17 in 10.0 mi NNW 23.0 mph - N/A   Overcast
1:55 AM 46.4 °F 38.1 °F 35.6 °F 66% 30.19 in 10.0 mi NNW 24.2 mph 32.2 mph N/A   Overcast
2:15 AM 46.4 °F 39.5 °F 33.8 °F 62% 30.20 in 10.0 mi NNW 17.3 mph 26.5 mph N/A   Overcast
2:35 AM 44.6 °F 36.4 °F 32.0 °F 61% 30.20 in 10.0 mi NNW 20.7 mph 28.8 mph N/A   Overcast
2:55 AM 44.6 °F 35.9 °F 28.4 °F 53% 30.21 in 10.0 mi NNW 23.0 mph 29.9 mph N/A   Overcast
3:15 AM 42.8 °F 32.7 °F 28.4 °F 57% 30.22 in 10.0 mi NNW 27.6 mph 33.4 mph N/A   Overcast
3:35 AM 41.0 °F 30.7 °F 24.8 °F 53% 30.23 in 10.0 mi NNW 25.3 mph 34.5 mph N/A   Scattered Clouds
3:55 AM 39.2 °F 30.2 °F 24.8 °F 56% 30.24 in 10.0 mi NNW 17.3 mph 28.8 mph N/A   Mostly Cloudy
4:15 AM 39.2 °F 29.6 °F 24.8 °F 56% 30.25 in 10.0 mi NNW 19.6 mph 35.7 mph N/A   Partly Cloudy
4:35 AM 37.4 °F 27.2 °F 23.0 °F 56% 30.26 in 10.0 mi NNW 19.6 mph 29.9 mph N/A   Clear
4:55 AM 33.8 °F 21.6 °F 17.6 °F 52% 30.28 in 10.0 mi NNW 23.0 mph 34.5 mph N/A   Clear
5:15 AM 33.8 °F 22.2 °F 17.6 °F 52% 30.29 in 10.0 mi NNW 20.7 mph 33.4 mph N/A   Clear
5:35 AM 32.0 °F 20.5 °F 17.6 °F 55% 30.30 in 10.0 mi NNW 18.4 mph 28.8 mph N/A   Clear
5:55 AM 32.0 °F 20.5 °F 15.8 °F 51% 30.31 in 10.0 mi NNW 18.4 mph 29.9 mph N/A   Clear
6:15 AM 32.0 °F 20.5 °F 17.6 °F 55% 30.32 in 10.0 mi NNW 18.4 mph 28.8 mph N/A   Clear
6:35 AM 32.0 °F 19.8 °F 19.4 °F 60% 30.33 in 10.0 mi NNW 20.7 mph 27.6 mph N/A   Clear
6:55 AM 32.0 °F 20.1 °F 19.4 °F 60% 30.34 in 10.0 mi NNW 19.6 mph 28.8 mph N/A   Clear
7:15 AM 30.2 °F 18.5 °F 19.4 °F 64% 30.35 in 10.0 mi NNW 17.3 mph 28.8 mph N/A   Clear
7:35 AM 30.2 °F 18.5 °F 19.4 °F 64% 30.35 in 10.0 mi NNW 17.3 mph 25.3 mph N/A   Clear
7:55 AM 30.2 °F 19.8 °F 21.2 °F 69% 30.35 in 10.0 mi NNW 13.8 mph 20.7 mph N/A   Clear
8:15 AM 30.2 °F 19.3 °F 21.2 °F 69% 30.36 in 10.0 mi NNW 15.0 mph 24.2 mph N/A   Clear
8:35 AM 32.0 °F 20.1 °F 21.2 °F 64% 30.37 in 10.0 mi NNW 19.6 mph - N/A   Clear
8:55 AM 32.0 °F 21.2 °F 21.2 °F 64% 30.37 in 10.0 mi NNW 16.1 mph 26.5 mph N/A   Clear
9:15 AM 32.0 °F 20.5 °F 21.2 °F 64% 30.38 in 10.0 mi North 18.4 mph 25.3 mph N/A   Clear
9:35 AM 33.8 °F 22.8 °F 21.2 °F 60% 30.38 in 10.0 mi North 18.4 mph 27.6 mph N/A   Clear
9:55 AM 33.8 °F 23.5 °F 23.0 °F 65% 30.39 in 10.0 mi NNW 16.1 mph 24.2 mph N/A   Clear
10:15 AM 35.6 °F 24.5 °F 23.0 °F 60% 30.40 in 10.0 mi North 20.7 mph 27.6 mph N/A   Clear
10:35 AM 35.6 °F 24.2 °F 23.0 °F 60% 30.40 in 10.0 mi North 21.9 mph 27.6 mph N/A   Clear
10:55 AM 37.4 °F 27.2 °F 23.0 °F 56% 30.41 in 10.0 mi North 19.6 mph - N/A   Clear
11:15 AM 37.4 °F 26.4 °F 23.0 °F 56% 30.41 in 10.0 mi NNW 23.0 mph - N/A   Clear
11:35 AM 37.4 °F 26.9 °F 23.0 °F 56% 30.41 in 10.0 mi North 20.7 mph - N/A   Clear
11:55 AM 39.2 °F 30.5 °F 23.0 °F 52% 30.41 in 9.0 mi North 16.1 mph 25.3 mph N/A   Clear
12:15 PM 39.2 °F 30.5 °F 23.0 °F 52% 30.41 in 10.0 mi North 16.1 mph 26.5 mph N/A   Clear
12:35 PM 41.0 °F 31.9 °F 23.0 °F 49% 30.40 in 10.0 mi North 19.6 mph - N/A   Clear
12:55 PM 41.0 °F 32.8 °F 23.0 °F 49% 30.40 in 10.0 mi NNW 16.1 mph 24.2 mph N/A   Clear
1:15 PM 41.0 °F 33.1 °F 23.0 °F 49% 30.40 in 10.0 mi North 15.0 mph 31.1 mph N/A   Clear
1:35 PM 42.8 °F 35.1 °F 23.0 °F 46% 30.39 in 10.0 mi North 16.1 mph 26.5 mph N/A   Clear
1:55 PM 42.8 °F 35.1 °F 23.0 °F 46% 30.39 in 10.0 mi North 16.1 mph 29.9 mph N/A   Clear
2:15 PM 42.8 °F 35.1 °F 21.2 °F 42% 30.39 in 10.0 mi NNW 16.1 mph 25.3 mph N/A   Clear
2:35 PM 42.8 °F 34.0 °F 21.2 °F 42% 30.39 in 10.0 mi North 20.7 mph 27.6 mph N/A   Clear
2:55 PM 42.8 °F 34.0 °F 21.2 °F 42% 30.39 in 10.0 mi North 20.7 mph 29.9 mph N/A   Partly Cloudy
3:15 PM 42.8 °F 34.0 °F 21.2 °F 42% 30.39 in 10.0 mi NNW 20.7 mph - N/A   Clear
3:35 PM 42.8 °F 33.8 °F 21.2 °F 42% 30.39 in 10.0 mi NNW 21.9 mph 27.6 mph N/A   Clear
3:55 PM 42.8 °F 33.8 °F 21.2 °F 42% 30.38 in 10.0 mi North 21.9 mph 27.6 mph N/A   Clear
4:15 PM 42.8 °F 34.3 °F 19.4 °F 39% 30.39 in 10.0 mi North 19.6 mph 25.3 mph N/A   Clear
4:35 PM 42.8 °F 34.8 °F 19.4 °F 39% 30.40 in 10.0 mi North 17.3 mph 25.3 mph N/A   Clear
4:55 PM 42.8 °F 34.8 °F 19.4 °F 39% 30.40 in 10.0 mi NNW 17.3 mph 24.2 mph N/A   Clear
5:15 PM 41.0 °F 32.5 °F 19.4 °F 42% 30.41 in 10.0 mi North 17.3 mph 23.0 mph N/A   Clear
5:35 PM 41.0 °F 33.9 °F 19.4 °F 42% 30.41 in 10.0 mi North 12.7 mph 20.7 mph N/A   Clear
5:55 PM 39.2 °F 31.6 °F 19.4 °F 45% 30.41 in 10.0 mi North 12.7 mph - N/A   Clear
6:15 PM 37.4 °F 29.8 °F 19.4 °F 48% 30.42 in 10.0 mi North 11.5 mph - N/A   Clear
6:35 PM 37.4 °F 30.8 °F 19.4 °F 48% 30.42 in 10.0 mi North 9.2 mph - N/A   Clear
6:55 PM 35.6 °F 29.9 °F 19.4 °F 52% 30.43 in 10.0 mi North 6.9 mph - N/A   Clear
7:15 PM 35.6 °F 29.2 °F 19.4 °F 52% 30.43 in 10.0 mi North 8.1 mph - N/A   Clear
7:35 PM 33.8 °F 27.0 °F 21.2 °F 60% 30.43 in 10.0 mi North 8.1 mph - N/A   Clear
7:55 PM 33.8 °F 27.0 °F 21.2 °F 60% 30.44 in 10.0 mi North 8.1 mph - N/A   Clear
8:15 PM 33.8 °F 27.0 °F 21.2 °F 60% 30.44 in 10.0 mi North 8.1 mph - N/A   Clear
8:35 PM 32.0 °F 24.8 °F 21.2 °F 64% 30.44 in 10.0 mi North 8.1 mph - N/A   Clear
8:55 PM 32.0 °F 25.6 °F 21.2 °F 64% 30.44 in 10.0 mi North 6.9 mph - N/A   Clear
9:15 PM 32.0 °F 25.6 °F 21.2 °F 64% 30.44 in 10.0 mi NNW 6.9 mph - N/A   Clear
9:35 PM 32.0 °F 25.6 °F 21.2 °F 64% 30.44 in 10.0 mi NNW 6.9 mph - N/A   Clear
9:55 PM 32.0 °F 25.6 °F 21.2 °F 64% 30.44 in 10.0 mi NNW 6.9 mph - N/A   Clear
10:15 PM 32.0 °F 24.8 °F 21.2 °F 64% 30.45 in 10.0 mi NNW 8.1 mph - N/A   Clear
10:35 PM 30.2 °F 22.6 °F 21.2 °F 69% 30.46 in 10.0 mi North 8.1 mph - N/A   Clear
10:55 PM 30.2 °F 22.6 °F 21.2 °F 69% 30.46 in 10.0 mi North 8.1 mph - N/A   Clear
11:15 PM 30.2 °F 22.6 °F 21.2 °F 69% 30.47 in 10.0 mi North 8.1 mph - N/A   Clear
11:35 PM 30.2 °F 22.6 °F 21.2 °F 69% 30.46 in 10.0 mi North 8.1 mph - N/A   Clear
11:55 PM 30.2 °F 22.6 °F 21.2 °F 69% 30.46 in 10.0 mi North 8.1 mph - N/A   Clear